Wind_Speed
8 7 6 6 5 4 3 3 3 3 3 3 3 3 3 4 5 6 7 8 9 10 10 11 11 11 12 11 11 10 9 8 7 6 5 5 4 5 5 6 6 7 8
8 8 7 6 5 5 5 5 4 3 3 3 3 3 3 4 4 6 7 8 8 9 10 10 11 11 11 12 11 10 9 8 7 6 6 5 4 4 5 5 6 7 7
8 8 7 7 6 5 5 4 4 4 4 3 3 3 3 4 5 6 7 7 8 9 10 10 10 11 11 12 12 11 10 9 7 6 6 5 5 4 4 5 6 6 7
9 9 8 7 6 6 5 5 5 4 4 3 3 3 3 4 5 5 6 7 8 8 9 10 10 11 11 11 11 11 10 9 8 7 6 6 5 5 4 4 5 6 7
9 9 9 8 7 6 6 6 5 4 4 4 4 4 4 4 5 5 6 7 7 8 9 9 10 11 11 11 11 11 10 9 9 8 7 6 6 5 5 5 5 6 7
9 9 9 8 7 7 7 7 6 5 4 5 4 5 4 4 5 5 6 6 7 8 8 9 10 11 11 11 11 11 10 9 9 8 8 7 6 6 6 6 6 7 7
9 9 8 8 8 7 7 6 5 5 4 5 5 5 4 5 5 6 6 6 7 8 8 9 10 10 11 11 11 11 10 10 9 9 8 8 7 7 7 7 7 7 8
10 10 9 8 8 8 8 7 6 5 5 5 5 5 5 6 6 6 6 6 7 8 8 9 9 10 10 11 11 11 11 10 10 9 9 8 8 8 8 8 8 8 8
10 9 9 9 8 8 8 7 7 6 6 5 6 5 6 6 6 6 6 6 7 8 8 9 10 10 11 11 11 11 11 10 10 10 10 10 9 9 9 9 9 9 9
10 10 10 9 8 8 8 8 7 7 7 6 7 6 7 6 7 6 6 6 7 9 9 10 10 11 11 12 12 11 11 11 11 11 11 11 11 11 11 11 11 11 11
10 10 9 9 9 8 8 8 8 8 8 8 8 8 8 8 7 7 7 8 8 10 10 11 12 12 12 12 13 13 13 12 12 12 12 12 12 12 13 13 13 13 13
10 10 9 10 9 9 9 9 9 9 9 9 9 9 9 9 9 9 9 9 10 11 11 12 13 13 13 13 14 14 14 14 14 14 14 14 14 14 14 14 14 14 15
10 10 9 9 10 10 10 10 9 9 9 9 10 10 10 10 10 11 11 12 12 12 13 13 14 14 14 15 15 16 16 16 16 16 16 16 16 16 16 16 17 17 17
11 11 11 11 10 10 10 10 10 10 10 10 10 11 11 11 12 12 13 14 14 14 14 15 15 16 16 16 17 18 18 18 18 18 18 18 18 19 18 19 19 20 20
12 12 12 11 11 10 10 10 10 10 11 11 11 11 12 13 14 14 15 15 16 15 16 16 17 18 18 18 19 19 20 20 20 20 20 20 21 21 21 22 22 23 23
13 13 12 12 12 11 11 11 11 11 11 12 12 13 14 15 15 16 16 17 17 17 18 19 19 20 21 21 21 22 22 22 22 22 23 23 23 24 24 24 24 25 25
14 13 13 13 12 12 12 11 12 12 12 12 13 14 16 16 16 16 17 17 18 19 20 21 21 22 23 23 23 23 23 24 24 25 25 26 26 26 26 26 26 26 27
13 14 14 14 14 13 12 12 13 13 14 14 15 16 17 17 18 18 19 19 21 22 22 23 23 24 24 24 24 24 25 26 26 27 27 27 27 27 28 28 29 29 29
14 14 14 14 14 13 13 14 14 14 15 16 17 18 19 19 20 20 21 22 23 24 24 25 25 25 26 26 27 27 27 28 29 29 30 30 30 30 31 31 31 31 32
15 15 15 15 14 15 15 15 16 16 16 17 18 20 21 21 22 22 23 24 25 26 26 27 27 27 28 29 29 30 31 32 32 32 32 32 33 33 34 34 34 34 35
15 15 15 16 16 16 16 17 17 17 18 19 20 21 21 22 23 23 24 25 26 27 28 29 29 30 31 32 33 33 34 34 34 35 35 35 35 35 36 36 37 37 37
17 17 17 18 18 17 18 18 19 19 20 20 21 22 22 23 24 25 26 27 28 29 29 31 32 33 34 34 35 36 36 36 36 36 37 37 37 37 38 38 39 40 40
18 18 19 19 19 19 20 20 21 21 22 22 23 23 24 25 26 27 28 29 30 31 32 33 34 35 36 37 37 38 38 38 38 38 39 39 40 41 41 42 42 42 43
18 18 19 20 20 20 21 21 22 23 24 24 25 26 27 28 29 30 31 32 33 34 35 35 36 37 38 39 39 39 39 40 40 41 42 42 43 44 44 44 44 44 45
19 19 20 20 20 21 22 23 24 25 25 26 27 28 29 30 32 32 33 34 35 36 37 38 39 39 40 40 41 41 41 42 43 44 44 45 46 46 46 47 47 48 48
19 20 20 20 21 22 23 24 25 26 27 29 30 31 32 33 34 35 36 37 38 39 39 40 41 42 42 43 43 44 44 45 46 47 47 48 48 48 49 50 50 51 52
Wind_Direction
204 204 206 209 210 211 218 228 237 252 261 269 280 299 314 332 345 351 354 358 1 2 1 1 1 1 360 0 359 356 353 349 342 336 329 320 307 294 281 271 255 249 245
208 207 207 209 214 221 227 234 239 253 261 265 277 294 309 326 338 348 351 355 358 1 1 2 2 3 3 3 2 0 359 357 353 348 340 331 320 307 287 273 262 257 252
212 209 207 216 216 218 226 230 233 245 259 259 268 287 304 320 330 340 346 352 356 358 360 1 0 1 2 3 3 2 2 2 360 356 350 345 335 321 302 277 273 265 259
215 214 211 216 218 221 227 230 234 241 247 257 268 280 297 313 324 335 343 351 352 351 353 357 358 360 0 360 1 2 4 4 1 358 353 347 341 330 317 297 283 275 268
216 217 215 215 220 221 227 234 236 239 248 257 262 274 290 307 318 328 338 345 348 349 349 352 355 358 358 357 359 1 2 2 1 358 355 350 342 335 325 313 298 286 278
219 219 216 218 221 222 228 229 229 240 252 257 262 275 286 301 314 323 331 338 344 346 348 348 351 355 356 356 356 358 358 358 356 355 354 350 342 335 330 320 308 296 286
220 215 213 218 218 219 223 224 228 243 254 260 265 274 280 296 310 320 329 335 340 343 343 345 347 350 352 353 353 353 352 352 351 349 347 344 341 338 333 325 315 304 294
216 215 217 220 219 222 224 226 232 245 256 262 269 272 280 291 302 310 322 329 333 336 337 338 341 343 345 346 346 346 346 345 344 343 341 338 336 333 331 327 318 307 300
216 219 222 221 225 227 229 233 238 246 254 260 268 273 281 288 297 304 314 323 328 330 331 333 335 336 337 337 336 336 337 337 335 334 333 331 329 327 325 323 318 309 302
221 223 226 228 227 228 233 237 242 248 254 259 267 274 281 286 293 299 306 317 323 325 327 328 330 331 331 333 333 332 330 329 329 328 326 323 321 320 318 317 315 311 306
223 221 223 228 231 235 236 242 247 253 257 261 267 272 277 281 286 293 302 309 316 320 323 327 327 328 327 327 327 327 326 323 321 321 320 318 316 314 313 312 311 309 307
221 220 224 230 234 239 242 248 253 257 261 267 270 272 275 278 283 290 297 302 307 314 318 321 323 324 323 323 324 323 320 318 315 313 313 312 311 311 309 308 307 306 305
228 227 232 237 241 245 247 251 256 259 260 266 270 273 274 278 283 290 294 299 302 307 310 314 317 318 318 318 318 318 318 316 314 311 308 307 307 305 303 302 301 301 301
233 234 239 243 242 245 250 254 260 264 266 270 275 277 278 281 284 290 294 297 300 303 305 307 310 313 313 313 313 313 313 312 311 310 307 305 303 301 300 298 297 297 297
240 241 242 244 245 250 254 256 262 268 272 274 277 283 286 287 288 289 292 295 298 300 302 304 306 309 309 309 309 309 308 308 307 306 304 303 301 300 297 295 294 294 294
244 245 247 249 250 254 256 258 263 268 274 277 281 285 289 290 290 291 292 294 297 300 302 303 305 306 305 305 305 306 306 306 304 303 302 301 299 298 296 294 292 291 291
248 248 252 253 251 255 259 262 265 270 274 279 284 287 289 291 290 291 293 294 297 299 301 302 303 303 303 304 304 304 305 306 305 304 303 301 299 296 294 293 292 292 290
249 250 252 255 258 259 261 264 269 272 276 279 282 288 289 289 290 291 292 294 296 298 300 301 302 302 302 303 303 304 305 305 305 304 304 302 300 297 295 293 292 291 291
252 254 257 259 259 259 263 267 272 276 280 283 285 289 290 289 290 291 291 293 295 296 298 299 300 301 301 301 301 302 303 303 303 303 303 302 301 298 296 295 293 292 291
253 256 258 259 261 263 266 271 276 279 283 286 289 291 292 292 291 291 292 294 295 296 297 298 298 300 301 301 300 301 301 302 302 301 300 299 299 298 297 295 293 291 289
256 258 259 260 263 266 269 274 279 282 286 288 290 292 294 294 293 293 294 295 296 297 297 298 299 300 300 301 301 301 301 301 301 300 299 298 297 297 297 295 294 292 291
256 258 260 264 266 269 272 276 280 283 285 288 290 292 293 294 295 295 295 296 297 298 298 299 300 300 301 301 301 300 300 300 300 299 298 297 297 296 296 296 295 294 293
259 261 263 267 270 272 275 278 280 283 286 288 290 292 293 294 295 295 296 297 298 298 299 300 300 300 301 301 300 299 299 299 298 298 298 297 296 296 296 295 295 294 293
262 264 266 270 272 274 277 280 283 286 287 289 291 292 294 294 296 296 297 297 298 299 299 300 301 301 301 301 300 299 298 297 297 297 297 296 296 296 296 296 295 295 294
264 266 268 270 271 274 278 281 285 287 288 291 292 293 294 294 295 296 296 297 298 299 299 300 301 301 301 301 300 298 297 296 296 296 296 295 295 295 295 295 295 295 294
265 268 270 271 274 277 281 283 286 287 289 290 292 293 294 295 296 297 297 297 298 299 299 299 300 301 301 301 300 299 298 297 296 296 296 295 295 295 295 295 295 294 294
Height
5868 5869 5870 5872 5873 5874 5875 5876 5877 5877 5878 5878 5879 5879 5879 5879 5878 5878 5877 5875 5874 5872 5871 5869 5867 5865 5864 5861 5859 5858 5856 5855 5854 5853 5853 5853 5853 5853 5853 5854 5855 5856 5857
5867 5868 5870 5871 5872 5874 5875 5875 5876 5877 5877 5877 5878 5878 5879 5878 5878 5877 5876 5875 5874 5872 5871 5869 5867 5866 5864 5862 5860 5858 5856 5854 5853 5853 5853 5852 5853 5852 5852 5853 5853 5854 5855
5866 5867 5869 5870 5872 5873 5874 5874 5875 5876 5876 5877 5877 5878 5878 5878 5878 5877 5876 5875 5873 5872 5871 5869 5868 5866 5864 5862 5860 5858 5856 5854 5853 5853 5852 5852 5852 5852 5852 5852 5853 5853 5854
5865 5867 5868 5869 5871 5872 5873 5874 5874 5875 5876 5876 5877 5877 5877 5877 5877 5876 5875 5874 5873 5872 5871 5869 5868 5866 5864 5862 5860 5858 5856 5855 5854 5853 5852 5852 5851 5851 5851 5852 5852 5852 5853
5864 5865 5867 5868 5870 5871 5872 5873 5874 5874 5875 5875 5876 5876 5877 5876 5876 5875 5875 5874 5873 5872 5871 5869 5868 5866 5864 5862 5860 5859 5857 5855 5854 5853 5852 5852 5851 5851 5851 5851 5851 5851 5851
5863 5864 5866 5867 5869 5870 5871 5872 5873 5874 5874 5874 5875 5875 5875 5875 5875 5875 5874 5873 5872 5871 5870 5869 5867 5866 5864 5862 5861 5859 5857 5856 5855 5853 5852 5852 5851 5851 5850 5850 5850 5850 5850
5862 5863 5865 5866 5867 5869 5870 5871 5872 5872 5873 5873 5874 5874 5874 5874 5874 5874 5873 5872 5872 5871 5870 5868 5867 5865 5864 5862 5861 5859 5857 5856 5855 5854 5852 5851 5851 5850 5850 5849 5849 5849 5849
5860 5862 5864 5865 5866 5868 5869 5870 5870 5871 5872 5872 5873 5873 5873 5873 5873 5873 5872 5871 5871 5870 5869 5867 5866 5865 5863 5862 5860 5859 5857 5856 5854 5853 5852 5851 5850 5849 5849 5848 5848 5847 5847
5859 5861 5862 5864 5865 5866 5868 5868 5869 5870 5870 5871 5871 5871 5872 5872 5872 5871 5871 5870 5869 5869 5868 5866 5865 5864 5863 5861 5860 5858 5857 5855 5854 5853 5852 5850 5849 5848 5847 5847 5846 5846 5845
5858 5860 5861 5863 5864 5865 5866 5867 5868 5868 5869 5870 5870 5870 5870 5870 5870 5870 5869 5869 5868 5867 5866 5865 5864 5863 5861 5860 5859 5857 5855 5854 5853 5852 5851 5849 5848 5847 5846 5845 5844 5843 5843
5857 5858 5860 5861 5862 5863 5864 5865 5866 5867 5867 5868 5868 5868 5868 5868 5868 5868 5868 5867 5867 5866 5865 5864 5862 5861 5860 5858 5857 5855 5854 5853 5851 5850 5849 5848 5846 5845 5844 5843 5842 5841 5840
5855 5857 5858 5859 5861 5862 5863 5864 5864 5865 5865 5866 5866 5866 5866 5866 5866 5866 5866 5865 5865 5864 5863 5862 5860 5859 5857 5856 5855 5853 5852 5850 5849 5848 5846 5845 5844 5843 5842 5841 5839 5838 5837
5853 5855 5856 5858 5859 5860 5861 5861 5862 5863 5863 5863 5863 5864 5864 5864 5864 5864 5863 5863 5862 5861 5860 5859 5858 5856 5855 5854 5852 5851 5849 5848 5846 5845 5843 5842 5841 5840 5838 5837 5836 5835 5833
5851 5853 5854 5855 5856 5857 5858 5859 5860 5860 5861 5861 5861 5861 5861 5861 5861 5861 5860 5860 5859 5858 5857 5856 5855 5853 5852 5850 5849 5847 5846 5844 5842 5841 5839 5838 5837 5835 5834 5832 5831 5830 5829
5849 5851 5852 5853 5854 5855 5856 5856 5857 5857 5858 5858 5858 5858 5858 5857 5857 5857 5857 5856 5855 5854 5853 5852 5851 5850 5848 5846 5845 5843 5842 5840 5838 5836 5834 5833 5831 5830 5828 5827 5825 5824 5822
5847 5848 5849 5850 5851 5852 5853 5854 5854 5854 5855 5855 5855 5855 5854 5854 5853 5853 5852 5852 5851 5850 5849 5848 5847 5845 5843 5842 5840 5838 5836 5834 5832 5831 5828 5827 5825 5823 5821 5820 5818 5817 5815
5844 5845 5847 5848 5849 5849 5850 5850 5851 5851 5851 5851 5851 5851 5850 5849 5849 5848 5848 5848 5847 5846 5845 5843 5842 5840 5838 5836 5834 5832 5830 5828 5826 5824 5822 5820 5818 5816 5814 5812 5811 5809 5807
5841 5843 5844 5845 5845 5846 5847 5847 5847 5848 5848 5847 5847 5846 5845 5845 5844 5844 5843 5843 5842 5841 5839 5838 5836 5834 5832 5830 5828 5826 5824 5822 5820 5817 5815 5813 5810 5808 5806 5804 5803 5801 5799
5838 5840 5840 5841 5842 5842 5843 5844 5844 5844 5844 5843 5843 5842 5841 5840 5839 5839 5838 5837 5836 5835 5834 5832 5830 5828 5826 5824 5822 5820 5817 5815 5813 5810 5807 5805 5802 5799 5797 5796 5794 5792 5790
5835 5836 5837 5838 5838 5839 5839 5840 5840 5840 5840 5839 5838 5837 5836 5835 5834 5833 5832 5831 5830 5829 5827 5825 5823 5821 5819 5817 5814 5812 5810 5807 5805 5802 5799 5796 5793 5790 5787 5785 5783 5781 5779
5832 5833 5834 5834 5835 5835 5836 5836 5836 5836 5835 5834 5833 5832 5831 5830 5829 5828 5826 5825 5824 5822 5820 5818 5816 5814 5812 5809 5806 5803 5800 5798 5795 5792 5790 5786 5783 5780 5777 5774 5772 5769 5767
5828 5829 5830 5830 5831 5831 5832 5831 5831 5831 5830 5829 5828 5827 5826 5825 5823 5822 5820 5818 5817 5815 5813 5811 5808 5806 5803 5800 5797 5794 5791 5788 5785 5782 5779 5776 5773 5770 5767 5763 5760 5757 5755
5824 5824 5825 5826 5826 5826 5826 5826 5826 5825 5825 5824 5823 5821 5820 5819 5817 5815 5813 5811 5809 5807 5804 5802 5799 5797 5793 5790 5787 5784 5780 5777 5774 5771 5768 5765 5762 5758 5755 5752 5748 5744 5741
5819 5820 5820 5821 5821 5821 5821 5821 5820 5819 5819 5818 5816 5815 5814 5812 5810 5808 5805 5803 5801 5798 5795 5793 5790 5787 5783 5780 5776 5773 5769 5766 5763 5759 5756 5753 5749 5746 5742 5739 5735 5731 5727
5814 5814 5815 5815 5816 5815 5815 5815 5814 5813 5811 5810 5809 5808 5806 5804 5802 5799 5797 5794 5792 5788 5786 5782 5779 5776 5772 5768 5765 5761 5757 5754 5750 5747 5744 5740 5736 5733 5729 5725 5721 5717 5713
5808 5809 5809 5809 5809 5809 5809 5808 5807 5806 5804 5803 5801 5799 5797 5795 5793 5790 5788 5785 5782 5778 5775 5771 5767 5763 5760 5756 5752 5748 5744 5740 5736 5732 5729 5725 5721 5717 5713 5710 5705 5701 5697